Location: La Chapelle
(48.3135°N, 1.3085°W)
Time: 03:46:48
(UTC+00:00)

Ariane Rocket - Visible Passes

Search period start: 14 June 2021 00:00
Search period end: 24 June 2021 00:00
Orbit: 761 x 769 km, 98.7° (Epoch: 13 June)

Date Brightness Start Highest point End Pass type
(mag) Time Alt. Az. Time Alt. Az. Time Alt. Az.
14 Jun 5.2 21:29:20 10° SW 21:33:05 20° W 21:36:52 10° NW visible
15 Jun 4.2 20:51:09 10° SSW 20:55:57 41° W 21:00:47 10° NNW visible
16 Jun 5.6 21:56:42 10° WSW 21:58:45 12° W 22:00:49 10° WNW visible
17 Jun 4.9 21:17:17 10° SSW 21:21:28 26° W 21:25:42 10° NW visible
19 Jun 5.5 21:44:03 10° SW 21:47:06 16° W 21:50:09 10° NW visible
20 Jun 4.6 21:05:21 10° SSW 21:09:52 32° W 21:14:27 10° NNW visible
22 Jun 5.3 21:31:45 10° SW 21:35:27 20° W 21:39:09 10° NW visible
23 Jun 4.3 20:53:32 10° SSW 20:58:18 40° W 21:03:07 10° NNW visible
